Regional Weather Roundup
Issued by NWS

Home | Current Version | Previous Version | Text Only | Print | Product List | Glossary On
Versions: 1 2 3 4 5 6 7 8 9 10 11 12 13 14 15 16 17 18 19 20 21 22 23 24 25 26 27 28 29 30 31 32 33 34 35 36 37 38 39 40 41 42 43 44 45 46 47 48 49 50
000
ASUS43 KLOT 281808
RWRIL

ILLINOIS REGIONAL WEATHER ROUNDUP
NATIONAL WEATHER SERVICE CHICAGO/ROMEOVILLE IL
100 PM CDT FRI AUG 28 2015

NOTE: "FAIR" INDICATES FEW OR NO CLOUDS BELOW 12,000 FEET WITH NO
SIGNIFICANT WEATHER AND/OR OBSTRUCTIONS TO VISIBILITY.

* THESE STATIONS ARE NOT UNDER NWS QUALITY CONTROL. THEY ALSO MAY NOT
  REPORT WEATHER SUCH AS PRECIPITATION OR FOG.

ILZ001-002-007-009-015-016-024-281900-
NORTHWEST ILLINOIS

CITY           SKY/WX    TMP DP  RH WIND       PRES   REMARKS
MOLINE         CLOUDY    68  61  78 SE5       30.09F
6HR MIN TEMP:  59; 6HR MAX TEMP:  69;

STERLING*      CLOUDY   N/A N/A N/A S5        30.09F
SAVANNA*       LGT RAIN  69  60  73 SE5       30.11S
$$

ILZ003-004-008-010-011-017-018-281900-
NORTH CENTRAL ILLINOIS

CITY           SKY/WX    TMP DP  RH WIND       PRES   REMARKS
ROCKFORD       CLOUDY    69  61  75 S6        30.14F
6HR MIN TEMP:  61; 6HR MAX TEMP:  69; 6HR PCP: TRACE;

FREEPORT*      CLOUDY    67  61  82 SE5       30.14F
ROCHELLE*      CLOUDY    69  62  78 S5        30.13F
DE KALB*       CLOUDY    67  62  82 S7        30.15F
PERU*          CLOUDY    72  62  71 SE5       30.12F
$$

ILZ005-006-012>014-019>023-281900-
NORTHEAST ILLINOIS

CITY           SKY/WX    TMP DP  RH WIND       PRES   REMARKS
CHICAGO-OHARE  CLOUDY    71  59  65 SW7       30.13F
6HR MIN TEMP:  61; 6HR MAX TEMP:  72;

CHICAGO-MIDWAY CLOUDY    74  59  59 SW9       30.14F
6HR MIN TEMP:  63; 6HR MAX TEMP:  74;

AURORA         CLOUDY    70  61  73 S5        30.14F
6HR MIN TEMP:  59; 6HR MAX TEMP:  70;

LANSING*       CLOUDY    74  61  63 SW7       30.15F
JOLIET*        CLOUDY    74  63  69 CALM      30.14F
WAUKEGAN       CLOUDY    70  61  73 SE6       30.12F
6HR MIN TEMP:  56; 6HR MAX TEMP:  73;

DUPAGE AIRPORT CLOUDY    70  60  70 S5        30.13F
6HR MIN TEMP:  60; 6HR MAX TEMP:  70;

KANKAKEE*      CLOUDY    76  64  65 S5        30.14F
WHEELING       CLOUDY    72  58  61 SW8       30.15S
6HR MIN TEMP:  58; 6HR MAX TEMP:  74;

MORRIS*        CLOUDY    73  63  72 S5        30.12F
ROMEOVILLE*    CLOUDY    71  60  66 SW5       30.14F
NORTHERLY ISL    N/A     73  57  57 W12         N/A
$$

LMZ740>746-281900-
SOUTHERN LAKE MICHIGAN

STATION/POSITION SKY/WX   TEMP    WIND        PRES    VSBY  WAVE
                          AIR SEA DIR/SP/G                  HT/PER
                          (F)     (DEG/KT/KT) (MB)    (MI)  (FT/S)
SOUTHERN BUOY              67 68  170/  8/  8 1020.4F         1/ 4
WILMETTE HARBOR            62 57  320/  4/  6   N/A           1/ 3
HARRISON CRIB              70     160/  8/ 10   N/A
BURNHAM HARBOR             73     230/  6/ 10   N/A
CALUMET HARBOR             73     190/  5/  8   N/A
BURNS HARBOR               73     200/  9/ 12 1021.3S
MICHIGAN CITY              72     190/  8/ 10   N/A
MICHIGAN CITY 6N           72 71  250/  4/  6   N/A           0
ST. JOSEPH                 71 72  330/  2/  2   N/A           1
$$

ILZ025>027-034>036-040-047-049-050-058-095>099-281900-
WEST-CENTRAL ILLINOIS

CITY           SKY/WX    TMP DP  RH WIND       PRES   REMARKS
QUINCY         CLOUDY    72  62  71 S10       30.07F
GALESBURG*     CLOUDY    69  62  78 SE5       30.09F
MACOMB*        CLOUDY    71  62  74 SE5       30.10F
JACKSONVILLE*  CLOUDY    78  62  57 S10       30.08F
PITTSFIELD*    CLOUDY    76  60  57 S9G16     30.09F
$$

ILZ028>032-037-038-041>044-048-051>054-059>061-281900-
CENTRAL ILLINOIS

CITY           SKY/WX    TMP DP  RH WIND       PRES   REMARKS
PONTIAC        CLOUDY    76  63  64 S5        30.13F
BLOOMINGTON    CLOUDY    77  62  59 S9        30.13F
DECATUR        PTSUNNY   79  58  48 S8        30.13F HX  80
PEORIA         CLOUDY    77  61  57 S6        30.10F
6HR MIN TEMP:  63; 6HR MAX TEMP:  77;

LACON*         CLOUDY    72  62  69 SE7       30.10F
LINCOLN*       CLOUDY    79  58  48 S10       30.10F HX  80
SPRINGFIELD    PTSUNNY   80  60  50 SE15G21   30.10F HX  81
6HR MIN TEMP:  59; 6HR MAX TEMP:  81;

TAYLORVILLE    MOSUNNY   77  59  53 SE10      30.11F
$$

ILZ033-039-045-046-055>057-062-063-281900-
EAST-CENTRAL ILLINOIS

CITY           SKY/WX    TMP DP  RH WIND       PRES   REMARKS
CHAMPAIGN      PTSUNNY   79  59  50 S9        30.15F HX  80
RANTOUL*       CLOUDY    79  61  54 S8        30.14F HX  81
MATTOON        PTSUNNY   78  57  48 S7        30.13F
PARIS*         PTSUNNY   77  60  55 S6        30.15F
$$

ILZ079-100>102-281900-
SOUTHWEST ILLINOIS

CITY           SKY/WX    TMP DP  RH WIND       PRES   REMARKS
ALTON          CLOUDY    75  59  57 S12       30.10F
BELLEVILLE     PTSUNNY   79  63  57 E8        30.09F HX  80
CAHOKIA*       PTSUNNY   78  60  53 S9        30.09F
SPARTA*        MOSUNNY   77  61  57 SE8       30.11F
$$

ILZ064>066-069>071-074>076-080>082-084>086-088>090-092>094-281900-
SOUTH-CENTRAL ILLINOIS

CITY           SKY/WX    TMP DP  RH WIND       PRES   REMARKS
CARBONDALE     MOSUNNY   78  61  55 E5        30.11F HX  80
6HR MIN TEMP:  56; 6HR MAX TEMP:  79;

CAIRO*         SUNNY     81  64  55 E3        30.10F HX  82
EFFINGHAM*     MOSUNNY   79  55  43 E8        30.14F
MARION         PTSUNNY   79  59  50 S8        30.12F HX  80
MT. VERNON     MOSUNNY   81  59  47 SE10      30.13F HX  81
SALEM*         MOSUNNY   79  57  47 SE6       30.12F HX  80
METROPOLIS*    SUNNY     81  63  53 SE3       30.11F HX  82
$$

ILZ067-068-072-073-078-083-087-091-281900-
SOUTHEAST ILLINOIS

CITY           SKY/WX    TMP DP  RH WIND       PRES   REMARKS
LAWRENCEVILLE  MOSUNNY   79  58  48 E9        30.14F HX  80
FLORA*         MOSUNNY   79  57  46 SE7       30.13F
FAIRFIELD*     MOSUNNY   77  60  54 SE9       30.12F
HARRISBURG*    MOSUNNY   80  58  46 SE6       30.12F HX  80
ROBINSON*      MOSUNNY   80  58  47 SE8       30.15F HX  80
CARMI*         PTSUNNY   78  61  55 E5        30.12F HX  80
$$

ABBREVIATIONS USED IN REMARKS
   TC - TEMPERATURE IN CELSIUS
  WCI - WIND CHILL INDEX
   HX - HEAT INDEX
  VSB - VISIBILITY
$$




USA.gov is the U.S. government's official web portal to all federal, state and local government web resources and services.